TimePDT,TemperatureF,Dew PointF,Humidity,Sea Level PressureIn,VisibilityMPH,Wind Direction,Wind SpeedMPH,Gust SpeedMPH,PrecipitationIn,Events,Conditions,WindDirDegrees,DateUTC
12:53 AM,57.0,51.1,81,30.06,10.0,Calm,Calm,-,N/A,,Overcast,0,2012-09-17 07:53:00
1:53 AM,57.0,51.1,81,30.07,10.0,NW,3.5,-,N/A,,Overcast,310,2012-09-17 08:53:00
2:53 AM,57.0,51.1,81,30.07,10.0,NNW,3.5,-,N/A,,Overcast,330,2012-09-17 09:53:00
3:53 AM,55.9,50.0,80,30.06,10.0,WNW,4.6,-,N/A,,Overcast,290,2012-09-17 10:53:00
4:53 AM,55.4,50.0,82,30.03,10.0,WNW,4.6,-,N/A,,Overcast,290,2012-09-17 11:53:00
5:53 AM,57.0,50.0,77,30.06,10.0,Calm,Calm,-,N/A,,Overcast,0,2012-09-17 12:53:00
6:38 AM,57.2,50.0,77,30.05,10.0,WNW,3.5,-,N/A,,Overcast,290,2012-09-17 13:38:00
6:53 AM,55.4,50.0,82,30.05,10.0,ESE,3.5,-,N/A,,Overcast,120,2012-09-17 13:53:00
7:53 AM,57.0,50.0,77,30.09,10.0,Calm,Calm,-,N/A,,Overcast,0,2012-09-17 14:53:00
8:53 AM,57.0,50.0,77,30.09,9.0,Calm,Calm,-,N/A,,Overcast,0,2012-09-17 15:53:00
9:53 AM,59.0,51.1,75,30.11,9.0,Calm,Calm,-,N/A,,Overcast,0,2012-09-17 16:53:00
10:44 AM,60.8,51.8,72,30.07,9.0,West,4.6,-,N/A,,Overcast,280,2012-09-17 17:44:00
10:53 AM,61.0,51.1,70,30.10,9.0,West,8.1,-,N/A,,Overcast,270,2012-09-17 17:53:00
11:53 AM,62.1,51.1,67,30.09,10.0,West,9.2,-,N/A,,Scattered Clouds,280,2012-09-17 18:53:00
12:53 PM,64.0,50.0,60,30.08,10.0,West,11.5,17.3,N/A,,Clear,280,2012-09-17 19:53:00
1:53 PM,64.9,50.0,58,30.07,10.0,West,11.5,-,N/A,,Clear,270,2012-09-17 20:53:00
2:53 PM,64.9,50.0,58,30.05,10.0,West,13.8,18.4,N/A,,Clear,270,2012-09-17 21:53:00
3:53 PM,66.0,48.9,54,30.04,10.0,WNW,11.5,-,N/A,,Clear,290,2012-09-17 22:53:00
4:53 PM,64.0,50.0,60,30.05,10.0,WNW,12.7,-,N/A,,Clear,290,2012-09-17 23:53:00
5:53 PM,63.0,50.0,63,30.05,10.0,WNW,11.5,-,N/A,,Clear,290,2012-09-18 00:53:00
6:53 PM,57.9,50.0,75,30.06,10.0,West,12.7,-,N/A,,Clear,280,2012-09-18 01:53:00
7:43 PM,55.4,50.0,82,30.04,10.0,NW,8.1,-,N/A,,Mostly Cloudy,310,2012-09-18 02:43:00
7:53 PM,55.0,50.0,83,30.07,10.0,WNW,9.2,-,N/A,,Overcast,300,2012-09-18 02:53:00
8:53 PM,55.0,50.0,83,30.08,10.0,NW,9.2,-,N/A,,Overcast,320,2012-09-18 03:53:00
9:53 PM,54.0,48.9,83,30.09,10.0,West,6.9,-,N/A,,Overcast,260,2012-09-18 04:53:00
10:24 PM,53.6,48.2,82,30.06,10.0,WSW,6.9,-,N/A,,Overcast,240,2012-09-18 05:24:00
10:53 PM,54.0,48.9,83,30.09,10.0,West,5.8,-,N/A,,Overcast,270,2012-09-18 05:53:00
11:53 PM,54.0,50.0,86,30.09,10.0,Calm,Calm,-,N/A,,Overcast,0,2012-09-18 06:53:00